RUK4CF GMTT-EGCC

Flight info

Callsign RUK4CF
Flight time N/A
Altitude 18000
Route LAMAD M143 GALTO/N0438F360 N869 BLN DCT MORAL DCT BEXID DCT VTB DCT SIE/N0443F380 DCT XERMA DCT ARLUN DCT BUGIX DCT UNGAS DCT DELOG DCT RUSIB DCT NOZHU/N0437F370 DCT SHIRI DCT TOJAQ DCT EPACE DCT ACCOP/N0357F240 P16 AXCIS
Aircraft B738/M-SDE3FGILRWY/SB1

Departure

Time N/A
Airport Tangier Ibn Battuta Airport (GMTT)

Arrival

Time 2026-05-07 21:09
Airport Manchester Airport (EGCC)
Time Latitude Longitude Altitude Speed Heading
2026-05-07 18:24 35.88752 -5.09863 24221 ft 440 kts 27°
2026-05-07 18:24 35.91361 -5.07876 24648 ft 443 kts 27°
2026-05-07 18:24 35.93999 -5.05872 25022 ft 447 kts 27°
2026-05-07 18:25 35.96650 -5.03833 25413 ft 450 kts 28°
2026-05-07 18:25 35.99305 -5.01760 25825 ft 453 kts 28°
2026-05-07 18:25 36.01967 -4.99661 26244 ft 455 kts 28°
2026-05-07 18:25 36.04639 -4.97542 26649 ft 458 kts 28°
2026-05-07 18:26 36.07323 -4.95407 27030 ft 460 kts 28°
2026-05-07 18:26 36.10020 -4.93263 27438 ft 462 kts 28°
2026-05-07 18:26 36.12695 -4.91136 27838 ft 464 kts 28°
2026-05-07 18:26 36.15413 -4.88976 28223 ft 466 kts 27°
2026-05-07 18:27 36.18193 -4.86788 28576 ft 468 kts 27°
2026-05-07 18:27 36.20918 -4.84663 28922 ft 471 kts 27°
2026-05-07 18:27 36.23701 -4.82498 29258 ft 473 kts 27°
2026-05-07 18:27 36.25588 -4.81029 29468 ft 475 kts 27°
2026-05-07 18:28 36.29304 -4.78131 29920 ft 478 kts 27°
2026-05-07 18:28 36.32125 -4.75924 30192 ft 480 kts 27°
2026-05-07 18:28 36.34956 -4.73707 30474 ft 482 kts 27°
2026-05-07 18:28 36.37797 -4.71476 30750 ft 484 kts 27°
2026-05-07 18:29 36.40641 -4.69241 31083 ft 484 kts 27°
2026-05-07 18:29 36.43480 -4.67007 31495 ft 482 kts 26°
2026-05-07 18:29 36.46316 -4.64773 31853 ft 482 kts 26°
2026-05-07 18:29 36.49147 -4.62543 32194 ft 481 kts 26°
2026-05-07 18:30 36.51019 -4.61067 32425 ft 481 kts 26°
2026-05-07 18:30 36.53840 -4.58843 32786 ft 480 kts 26°
2026-05-07 18:30 36.56659 -4.56617 33154 ft 479 kts 26°
2026-05-07 18:30 36.59463 -4.54400 33570 ft 476 kts 25°
2026-05-07 18:31 36.62254 -4.52193 33951 ft 474 kts 25°
2026-05-07 18:31 36.65041 -4.49987 34198 ft 475 kts 25°
2026-05-07 18:31 36.67827 -4.47782 34452 ft 475 kts 25°
2026-05-07 18:31 36.70614 -4.45572 34720 ft 474 kts 25°
2026-05-07 18:32 36.73395 -4.43365 35003 ft 474 kts 25°
2026-05-07 18:32 36.76176 -4.41156 35273 ft 473 kts 25°
2026-05-07 18:32 36.78953 -4.38950 35543 ft 473 kts 25°
2026-05-07 18:32 36.81736 -4.36790 35828 ft 469 kts 21°
2026-05-07 18:33 36.84646 -4.34983 35914 ft 466 kts 16°
2026-05-07 18:33 36.90598 -4.31793 35918 ft 465 kts 14°
2026-05-07 18:34 36.96544 -4.28668 35922 ft 462 kts 15°
2026-05-07 18:34 37.02402 -4.25509 35897 ft 460 kts 15°
2026-05-07 18:35 37.08247 -4.22305 35932 ft 458 kts 15°
2026-05-07 18:35 37.14085 -4.19090 35929 ft 459 kts 15°
2026-05-07 18:36 37.19935 -4.15865 35915 ft 460 kts 15°
2026-05-07 18:36 37.25792 -4.12630 35913 ft 460 kts 15°
2026-05-07 18:37 37.31660 -4.09384 35908 ft 460 kts 15°
2026-05-07 18:37 37.37518 -4.06137 35930 ft 460 kts 15°
2026-05-07 18:38 37.43395 -4.02878 35919 ft 463 kts 15°
2026-05-07 18:38 37.49310 -3.99591 35917 ft 466 kts 15°
2026-05-07 18:39 37.55251 -3.96281 35907 ft 467 kts 15°
2026-05-07 18:39 37.61151 -3.92988 35903 ft 467 kts 15°
2026-05-07 18:40 37.67135 -3.89643 35919 ft 468 kts 15°
2026-05-07 18:40 37.73060 -3.86325 35908 ft 469 kts 15°
2026-05-07 18:41 37.79023 -3.82980 35887 ft 469 kts 15°
2026-05-07 18:41 37.84977 -3.79633 35911 ft 467 kts 15°
2026-05-07 18:42 37.90910 -3.76293 35920 ft 466 kts 15°
2026-05-07 18:42 37.96823 -3.72958 35899 ft 464 kts 15°
2026-05-07 18:43 38.02714 -3.69630 35891 ft 462 kts 15°
2026-05-07 18:43 38.08541 -3.66333 35901 ft 460 kts 15°
2026-05-07 18:44 38.14410 -3.63160 35922 ft 451 kts
2026-05-07 18:44 38.17414 -3.62217 35919 ft 439 kts 358°
2026-05-07 18:44 38.20416 -3.61856 35921 ft 432 kts 354°
2026-05-07 18:45 38.26416 -3.61349 35916 ft 432 kts 354°
2026-05-07 18:45 38.32413 -3.60824 35914 ft 433 kts 354°
2026-05-07 18:46 38.38445 -3.60255 35907 ft 435 kts 354°
2026-05-07 18:46 38.44452 -3.59670 35911 ft 436 kts 354°
2026-05-07 18:47 38.50509 -3.59077 35914 ft 437 kts 354°
2026-05-07 18:47 38.56590 -3.58481 35910 ft 438 kts 354°
2026-05-07 18:48 38.62680 -3.57883 35923 ft 439 kts 354°
2026-05-07 18:48 38.68743 -3.57287 35909 ft 440 kts 354°
2026-05-07 18:49 38.74843 -3.56686 35919 ft 439 kts 354°
2026-05-07 18:49 38.80939 -3.56085 35903 ft 439 kts 354°
2026-05-07 18:50 38.87040 -3.55483 35912 ft 440 kts 355°
2026-05-07 18:50 38.93131 -3.54881 35912 ft 438 kts 355°
2026-05-07 18:51 38.99205 -3.54278 35900 ft 437 kts 354°
2026-05-07 18:51 39.05252 -3.53679 35905 ft 434 kts 354°
2026-05-07 18:52 39.11267 -3.53086 35919 ft 433 kts 354°
2026-05-07 18:52 39.17266 -3.52493 35916 ft 431 kts 354°
2026-05-07 18:53 39.23204 -3.51906 35915 ft 430 kts 354°
2026-05-07 18:53 39.29162 -3.51315 35917 ft 428 kts 354°
2026-05-07 18:54 39.35101 -3.50726 35939 ft 428 kts 354°
2026-05-07 18:54 39.41036 -3.50135 35938 ft 428 kts 354°
2026-05-07 18:55 39.46970 -3.49543 35932 ft 427 kts 354°
2026-05-07 18:55 39.52901 -3.48951 35961 ft 427 kts 354°
2026-05-07 18:56 39.58839 -3.48357 35935 ft 428 kts 355°
2026-05-07 18:56 39.64788 -3.47754 35930 ft 429 kts 355°
2026-05-07 18:57 39.70747 -3.47148 35930 ft 430 kts 355°
2026-05-07 18:57 39.76666 -3.46547 35949 ft 430 kts 355°
2026-05-07 18:58 39.82566 -3.46659 35935 ft 420 kts 347°
2026-05-07 18:58 39.88394 -3.47328 35933 ft 420 kts 346°
2026-05-07 18:59 39.94222 -3.47996 35927 ft 421 kts 346°
2026-05-07 18:59 40.00059 -3.48617 35950 ft 421 kts 347°
2026-05-07 19:00 40.05903 -3.49215 35932 ft 421 kts 347°
2026-05-07 19:00 40.11753 -3.49809 35924 ft 421 kts 347°
2026-05-07 19:01 40.17556 -3.50398 35919 ft 420 kts 347°
2026-05-07 19:01 40.23387 -3.50992 35929 ft 420 kts 347°
2026-05-07 19:02 40.29209 -3.51588 35913 ft 420 kts 347°
2026-05-07 19:02 40.35028 -3.52183 35916 ft 419 kts 347°
2026-05-07 19:03 40.40833 -3.52778 35901 ft 418 kts 347°
2026-05-07 19:03 40.46622 -3.53373 35917 ft 417 kts 347°
2026-05-07 19:04 40.52405 -3.53968 35913 ft 416 kts 347°
2026-05-07 19:04 40.58174 -3.54563 35918 ft 416 kts 347°
2026-05-07 19:05 40.63935 -3.55158 35911 ft 415 kts 347°
2026-05-07 19:05 40.69658 -3.55750 35921 ft 415 kts 347°
2026-05-07 19:06 40.75412 -3.56347 35923 ft 414 kts 347°
2026-05-07 19:06 40.84043 -3.57244 35925 ft 414 kts 347°
2026-05-07 19:07 40.89797 -3.57843 35938 ft 414 kts 347°
2026-05-07 19:07 40.95552 -3.58443 35927 ft 415 kts 347°
2026-05-07 19:08 41.01303 -3.59043 35924 ft 414 kts 347°
2026-05-07 19:08 41.07009 -3.59640 35932 ft 414 kts 347°
2026-05-07 19:09 41.12756 -3.60243 35931 ft 414 kts 347°
2026-05-07 19:09 41.18534 -3.60683 35930 ft 418 kts 351°
2026-05-07 19:10 41.24366 -3.60791 35920 ft 419 kts 351°
2026-05-07 19:10 41.30197 -3.60891 35937 ft 419 kts 351°
2026-05-07 19:11 41.36037 -3.61029 35921 ft 419 kts 351°
2026-05-07 19:11 41.41883 -3.61180 35907 ft 419 kts 351°
2026-05-07 19:12 41.47710 -3.61330 35911 ft 418 kts 351°
2026-05-07 19:12 41.53499 -3.61441 35922 ft 419 kts 353°
2026-05-07 19:13 41.59348 -3.61429 35916 ft 420 kts 353°
2026-05-07 19:13 41.65197 -3.61407 35910 ft 420 kts 353°
2026-05-07 19:14 41.71041 -3.61399 35909 ft 420 kts 353°
2026-05-07 19:14 41.76879 -3.61399 35919 ft 420 kts 353°
2026-05-07 19:15 41.82726 -3.61400 35913 ft 420 kts 353°
2026-05-07 19:15 41.88572 -3.61400 35914 ft 420 kts 353°
2026-05-07 19:16 41.94422 -3.61400 35937 ft 420 kts 353°
2026-05-07 19:16 42.00239 -3.61400 35931 ft 421 kts 353°
2026-05-07 19:17 42.06096 -3.61533 35925 ft 420 kts 351°
2026-05-07 19:17 42.11939 -3.61953 35925 ft 421 kts 351°
2026-05-07 19:18 42.17798 -3.62367 35930 ft 422 kts 351°
2026-05-07 19:18 42.23677 -3.62743 35940 ft 423 kts 351°
2026-05-07 19:19 42.29576 -3.63110 35943 ft 424 kts 351°
2026-05-07 19:19 42.35474 -3.63483 35960 ft 425 kts 351°
2026-05-07 19:20 42.40327 -3.64237 35949 ft 422 kts 346°
2026-05-07 19:20 42.46122 -3.65493 35942 ft 422 kts 346°
2026-05-07 19:21 42.51925 -3.66720 35936 ft 422 kts 346°
2026-05-07 19:21 42.57744 -3.67898 35948 ft 423 kts 347°
2026-05-07 19:22 42.63560 -3.69065 35940 ft 423 kts 347°
2026-05-07 19:22 42.69389 -3.70230 35934 ft 424 kts 347°
2026-05-07 19:23 42.75238 -3.71249 35928 ft 424 kts 348°
2026-05-07 19:23 42.81101 -3.72221 35923 ft 424 kts 348°
2026-05-07 19:24 42.86960 -3.73205 35922 ft 424 kts 348°
2026-05-07 19:24 42.92814 -3.74202 35930 ft 424 kts 348°
2026-05-07 19:25 42.98669 -3.75207 35919 ft 424 kts 348°
2026-05-07 19:25 43.04517 -3.76214 35915 ft 423 kts 348°
2026-05-07 19:26 43.10323 -3.77215 35913 ft 423 kts 348°
2026-05-07 19:26 43.16176 -3.78226 35896 ft 424 kts 348°
2026-05-07 19:27 43.22027 -3.79238 35897 ft 424 kts 348°
2026-05-07 19:27 43.27889 -3.80254 35892 ft 425 kts 348°
2026-05-07 19:28 43.33754 -3.81273 35883 ft 425 kts 348°
2026-05-07 19:28 43.39613 -3.82292 35888 ft 425 kts 348°
2026-05-07 19:29 43.45475 -3.83314 35880 ft 424 kts 348°
2026-05-07 19:29 43.51275 -3.84327 35884 ft 424 kts 348°
2026-05-07 19:30 43.57093 -3.85345 35903 ft 423 kts 348°
2026-05-07 19:30 43.62873 -3.86359 35894 ft 423 kts 348°
2026-05-07 19:31 43.68725 -3.87388 35891 ft 424 kts 348°
2026-05-07 19:31 43.74573 -3.88417 35894 ft 424 kts 348°
2026-05-07 19:32 43.80422 -3.89449 35899 ft 424 kts 348°
2026-05-07 19:32 43.86278 -3.90484 35896 ft 425 kts 348°
2026-05-07 19:33 43.92148 -3.91524 35895 ft 425 kts 348°
2026-05-07 19:33 43.98022 -3.92566 35914 ft 426 kts 349°
2026-05-07 19:34 44.03906 -3.93613 35909 ft 427 kts 349°
2026-05-07 19:34 44.09800 -3.94663 35908 ft 427 kts 349°
2026-05-07 19:35 44.15665 -3.95710 35901 ft 428 kts 349°
2026-05-07 19:35 44.21582 -3.96769 35910 ft 429 kts 349°
2026-05-07 19:36 44.27508 -3.97831 35910 ft 429 kts 349°
2026-05-07 19:36 44.33439 -3.98832 35909 ft 431 kts 353°
2026-05-07 19:37 44.39462 -3.98781 35915 ft 434 kts 358°
2026-05-07 19:37 44.45497 -3.98457 35916 ft 434 kts 358°
2026-05-07 19:38 44.51533 -3.98165 35918 ft 434 kts 358°
2026-05-07 19:38 44.57561 -3.97923 35932 ft 434 kts 358°
2026-05-07 19:39 44.63594 -3.97705 35928 ft 433 kts 358°
2026-05-07 19:39 44.69621 -3.97491 35929 ft 433 kts 358°
2026-05-07 19:40 44.75646 -3.97276 35934 ft 433 kts 358°
2026-05-07 19:40 44.81668 -3.97061 35935 ft 433 kts 358°
2026-05-07 19:41 44.87683 -3.96844 35931 ft 432 kts 358°
2026-05-07 19:41 44.93657 -3.96628 35946 ft 432 kts 358°
2026-05-07 19:42 44.99674 -3.96411 35936 ft 432 kts 358°
2026-05-07 19:42 45.05693 -3.96193 35943 ft 432 kts 358°
2026-05-07 19:43 45.11712 -3.95975 35945 ft 432 kts 358°
2026-05-07 19:43 45.17731 -3.95756 35949 ft 433 kts 358°
2026-05-07 19:44 45.23752 -3.95536 35945 ft 433 kts 358°
2026-05-07 19:44 45.29734 -3.95318 35945 ft 433 kts 358°
2026-05-07 19:45 45.35761 -3.95097 35955 ft 433 kts 358°
2026-05-07 19:45 45.41786 -3.94876 35956 ft 433 kts 358°
2026-05-07 19:46 45.47818 -3.94654 35956 ft 433 kts 358°
2026-05-07 19:46 45.53849 -3.94431 35964 ft 434 kts 358°
2026-05-07 19:47 45.59882 -3.94209 35961 ft 434 kts 358°
2026-05-07 19:47 45.65917 -3.93985 35965 ft 434 kts 358°
2026-05-07 19:48 45.71959 -3.93761 35972 ft 434 kts 358°
2026-05-07 19:48 45.78010 -3.93536 35967 ft 434 kts 358°
2026-05-07 19:49 45.84021 -3.93312 35970 ft 435 kts 358°
2026-05-07 19:49 45.90072 -3.93086 35974 ft 435 kts 358°
2026-05-07 19:50 45.96122 -3.92860 35976 ft 435 kts 358°
2026-05-07 19:50 46.02181 -3.92633 35976 ft 435 kts 358°
2026-05-07 19:51 46.08233 -3.92405 35978 ft 435 kts 358°
2026-05-07 19:51 46.14291 -3.92177 35985 ft 435 kts 358°
2026-05-07 19:52 46.20348 -3.91948 35978 ft 435 kts 358°
2026-05-07 19:52 46.26370 -3.91720 35981 ft 435 kts 358°
2026-05-07 19:53 46.32422 -3.91491 35991 ft 435 kts 358°
2026-05-07 19:53 46.38484 -3.91260 35986 ft 435 kts 358°
2026-05-07 19:54 46.44545 -3.91030 35986 ft 435 kts 358°
2026-05-07 19:54 46.50603 -3.90798 35996 ft 435 kts 358°
2026-05-07 19:55 46.56629 -3.90568 35987 ft 435 kts 358°
2026-05-07 19:55 46.62686 -3.90336 35989 ft 435 kts 358°
2026-05-07 19:56 46.68745 -3.90103 35989 ft 435 kts 358°
2026-05-07 19:56 46.74800 -3.89870 35995 ft 435 kts 358°
2026-05-07 19:57 46.80858 -3.89636 35995 ft 435 kts 358°
2026-05-07 19:57 46.86912 -3.89402 35994 ft 435 kts 358°
2026-05-07 19:58 46.92972 -3.89167 36002 ft 435 kts 358°
2026-05-07 19:58 46.99032 -3.88931 35995 ft 436 kts 358°
2026-05-07 19:59 47.05057 -3.88696 35996 ft 436 kts 358°
2026-05-07 19:59 47.11124 -3.88460 35999 ft 436 kts 358°
2026-05-07 20:00 47.17186 -3.88222 36001 ft 436 kts 358°
2026-05-07 20:00 47.23254 -3.87984 36005 ft 436 kts 358°
2026-05-07 20:01 47.29332 -3.87746 36002 ft 437 kts 358°
2026-05-07 20:01 47.35412 -3.87506 36004 ft 437 kts 358°
2026-05-07 20:02 47.41494 -3.87266 36002 ft 437 kts 358°
2026-05-07 20:02 47.47582 -3.87025 36004 ft 438 kts 358°
2026-05-07 20:03 47.53635 -3.86785 36018 ft 438 kts 358°
2026-05-07 20:03 47.59740 -3.86542 36006 ft 439 kts 358°
2026-05-07 20:04 47.65849 -3.86299 36003 ft 439 kts 358°
2026-05-07 20:04 47.71972 -3.86054 36003 ft 440 kts 358°
2026-05-07 20:05 47.78096 -3.85809 36007 ft 441 kts 358°
2026-05-07 20:05 47.84230 -3.85563 36003 ft 441 kts 358°
2026-05-07 20:06 47.90369 -3.85316 36000 ft 442 kts 358°
2026-05-07 20:06 47.96515 -3.85068 36014 ft 442 kts 358°
2026-05-07 20:07 48.02673 -3.84819 36005 ft 443 kts 358°
2026-05-07 20:07 48.08839 -3.84569 36004 ft 443 kts 358°
2026-05-07 20:08 48.15004 -3.84319 36005 ft 443 kts 358°
2026-05-07 20:08 48.21137 -3.84069 36000 ft 444 kts 359°
2026-05-07 20:09 48.27310 -3.83817 36017 ft 444 kts 359°
2026-05-07 20:10 48.36584 -3.83438 36008 ft 445 kts 359°
2026-05-07 20:10 48.41732 -3.83227 36012 ft 446 kts 359°
2026-05-07 20:11 48.47941 -3.82971 36011 ft 446 kts 359°
2026-05-07 20:11 48.55162 -3.82673 35998 ft 447 kts 359°
2026-05-07 20:12 48.60373 -3.82458 36008 ft 447 kts 359°
2026-05-07 20:12 48.66609 -3.82199 35994 ft 448 kts 359°
2026-05-07 20:13 48.72849 -3.81940 35995 ft 449 kts 359°
2026-05-07 20:13 48.79089 -3.81679 35998 ft 449 kts 359°
2026-05-07 20:14 48.85286 -3.81421 36001 ft 449 kts 359°
2026-05-07 20:14 48.91533 -3.81159 36000 ft 448 kts 359°
2026-05-07 20:15 48.97775 -3.80897 36000 ft 448 kts 359°
2026-05-07 20:15 49.04003 -3.80553 36008 ft 448 kts 360°
2026-05-07 20:16 49.10271 -3.80155 36074 ft 455 kts 360°
2026-05-07 20:16 49.13436 -3.79956 36318 ft 455 kts 360°
2026-05-07 20:16 49.16592 -3.79758 36655 ft 453 kts 360°
2026-05-07 20:16 49.19736 -3.79563 36976 ft 451 kts 360°
2026-05-07 20:17 49.22886 -3.79371 36977 ft 455 kts 360°
2026-05-07 20:17 49.29222 -3.78985 36995 ft 454 kts 360°
2026-05-07 20:18 49.35470 -3.78601 36992 ft 451 kts 360°
2026-05-07 20:18 49.41754 -3.78215 36998 ft 448 kts 360°
2026-05-07 20:19 49.47928 -3.77835 37007 ft 446 kts 360°
2026-05-07 20:19 49.54130 -3.77453 37000 ft 446 kts 360°
2026-05-07 20:20 49.60344 -3.77069 36999 ft 447 kts 360°
2026-05-07 20:20 49.66572 -3.76683 37005 ft 449 kts 360°
2026-05-07 20:21 49.72827 -3.76214 37010 ft 451 kts
2026-05-07 20:21 49.79100 -3.75447 37008 ft 453 kts
2026-05-07 20:22 49.85393 -3.74641 37013 ft 455 kts
2026-05-07 20:22 49.91674 -3.73872 37008 ft 456 kts
2026-05-07 20:23 49.98008 -3.73115 37009 ft 456 kts
2026-05-07 20:23 50.04340 -3.72359 37009 ft 456 kts
2026-05-07 20:24 50.10671 -3.71601 37014 ft 456 kts
2026-05-07 20:24 50.16997 -3.70841 37023 ft 456 kts
2026-05-07 20:25 50.23318 -3.70079 37013 ft 455 kts
2026-05-07 20:25 50.29631 -3.69316 37022 ft 454 kts
2026-05-07 20:26 50.35929 -3.68553 37018 ft 454 kts
2026-05-07 20:26 50.42225 -3.67782 37025 ft 453 kts
2026-05-07 20:27 50.48455 -3.66619 37030 ft 453 kts
2026-05-07 20:27 50.54709 -3.65375 37031 ft 453 kts
2026-05-07 20:28 50.60967 -3.64179 37041 ft 453 kts
2026-05-07 20:28 50.67226 -3.62989 37027 ft 453 kts
2026-05-07 20:29 50.73494 -3.61789 37023 ft 453 kts
2026-05-07 20:29 50.79756 -3.60585 37025 ft 454 kts
2026-05-07 20:30 50.86026 -3.59376 37025 ft 454 kts
2026-05-07 20:30 50.92305 -3.58162 37031 ft 455 kts
2026-05-07 20:31 50.98587 -3.56943 37034 ft 455 kts
2026-05-07 20:31 51.04874 -3.55721 37039 ft 455 kts
2026-05-07 20:32 51.11166 -3.54494 37037 ft 456 kts
2026-05-07 20:32 51.17465 -3.53262 37037 ft 456 kts
2026-05-07 20:33 51.23727 -3.52035 37036 ft 456 kts
2026-05-07 20:33 51.30028 -3.50800 37048 ft 456 kts
2026-05-07 20:34 51.36336 -3.49563 37021 ft 456 kts
2026-05-07 20:34 51.42648 -3.48321 37024 ft 456 kts
2026-05-07 20:34 51.45805 -3.47698 36827 ft 458 kts
2026-05-07 20:35 51.48964 -3.47074 36526 ft 454 kts
2026-05-07 20:35 51.52074 -3.46458 36137 ft 449 kts
2026-05-07 20:35 51.55163 -3.45845 35773 ft 445 kts
2026-05-07 20:35 51.58190 -3.45244 35388 ft 442 kts
2026-05-07 20:36 51.61233 -3.44640 35006 ft 439 kts
2026-05-07 20:36 51.64254 -3.44039 34626 ft 436 kts
2026-05-07 20:36 51.67264 -3.43439 34242 ft 434 kts
2026-05-07 20:36 51.70258 -3.42843 33813 ft 432 kts
2026-05-07 20:37 51.73240 -3.42247 33405 ft 429 kts
2026-05-07 20:37 51.76197 -3.41656 33008 ft 426 kts
2026-05-07 20:37 51.79132 -3.41068 32627 ft 423 kts
2026-05-07 20:37 51.82036 -3.40485 32256 ft 420 kts
2026-05-07 20:38 51.84925 -3.39905 31887 ft 416 kts
2026-05-07 20:38 51.87783 -3.39331 31531 ft 413 kts
2026-05-07 20:38 51.90627 -3.38758 31169 ft 410 kts
2026-05-07 20:38 51.93451 -3.38218 30813 ft 407 kts
2026-05-07 20:39 51.96265 -3.37906 30457 ft 404 kts
2026-05-07 20:39 51.99065 -3.37721 30103 ft 401 kts
2026-05-07 20:39 52.01849 -3.37561 29698 ft 399 kts
2026-05-07 20:39 52.04613 -3.37388 29315 ft 395 kts
2026-05-07 20:40 52.07343 -3.37196 28948 ft 392 kts
2026-05-07 20:40 52.10058 -3.36991 28597 ft 388 kts
2026-05-07 20:40 52.12706 -3.36786 28222 ft 385 kts
2026-05-07 20:40 52.15368 -3.36584 27882 ft 381 kts
2026-05-07 20:41 52.18009 -3.36395 27514 ft 378 kts
2026-05-07 20:41 52.20630 -3.36212 27156 ft 376 kts
2026-05-07 20:41 52.23234 -3.36031 26808 ft 373 kts
2026-05-07 20:41 52.25820 -3.35851 26468 ft 371 kts
2026-05-07 20:42 52.28397 -3.35670 26115 ft 369 kts
2026-05-07 20:42 52.30950 -3.35490 25772 ft 367 kts
2026-05-07 20:42 52.33491 -3.35310 25434 ft 365 kts
2026-05-07 20:42 52.36024 -3.35130 25087 ft 363 kts
2026-05-07 20:43 52.38541 -3.34952 24754 ft 361 kts
2026-05-07 20:43 52.41045 -3.34774 24416 ft 359 kts
2026-05-07 20:43 52.43537 -3.34597 24083 ft 358 kts
2026-05-07 20:43 52.46021 -3.34420 23752 ft 357 kts
2026-05-07 20:44 52.48499 -3.34235 23386 ft 356 kts
2026-05-07 20:44 52.50937 -3.34044 23000 ft 354 kts
2026-05-07 20:44 52.53425 -3.33848 22633 ft 352 kts
2026-05-07 20:44 52.55862 -3.33657 22292 ft 350 kts
2026-05-07 20:45 52.58251 -3.33470 21961 ft 347 kts
2026-05-07 20:45 52.60655 -3.33283 21636 ft 344 kts
2026-05-07 20:45 52.63035 -3.32918 21302 ft 344 kts
2026-05-07 20:45 52.65330 -3.31839 20987 ft 343 kts 19°
2026-05-07 20:46 52.67555 -3.30458 20669 ft 341 kts 19°
2026-05-07 20:46 52.69768 -3.29086 20354 ft 339 kts 19°
2026-05-07 20:46 52.71975 -3.27743 20034 ft 337 kts 19°
2026-05-07 20:46 52.74177 -3.26421 19737 ft 337 kts 18°
2026-05-07 20:47 52.76390 -3.25103 19420 ft 339 kts 18°
2026-05-07 20:47 52.78612 -3.23780 19115 ft 340 kts 18°
2026-05-07 20:47 52.80845 -3.22449 18785 ft 341 kts 18°
2026-05-07 20:47 52.83071 -3.21120 18485 ft 340 kts 19°
2026-05-07 20:48 52.85293 -3.19791 18148 ft 339 kts 19°
2026-05-07 20:48 52.87510 -3.18463 17803 ft 338 kts 19°
2026-05-07 20:48 52.89740 -3.17286 17459 ft 335 kts
2026-05-07 20:48 52.92041 -3.16983 17186 ft 329 kts 360°
2026-05-07 20:49 52.94323 -3.16874 16867 ft 327 kts 359°
2026-05-07 20:49 52.96592 -3.16764 16559 ft 325 kts 360°
2026-05-07 20:49 52.98848 -3.16629 16263 ft 323 kts
2026-05-07 20:49 53.01082 -3.16471 15967 ft 321 kts
2026-05-07 20:50 53.03311 -3.16300 15666 ft 319 kts
2026-05-07 20:50 53.05523 -3.16125 15370 ft 317 kts
2026-05-07 20:50 53.07723 -3.15951 15082 ft 316 kts
2026-05-07 20:50 53.09917 -3.15777 14793 ft 315 kts
2026-05-07 20:51 53.12077 -3.15606 14506 ft 314 kts
2026-05-07 20:51 53.14258 -3.15434 14222 ft 313 kts
2026-05-07 20:51 53.16428 -3.15261 13937 ft 312 kts
2026-05-07 20:51 53.18596 -3.15089 13628 ft 311 kts
2026-05-07 20:52 53.20757 -3.14917 13313 ft 310 kts
2026-05-07 20:52 53.22910 -3.14746 13020 ft 309 kts
2026-05-07 20:52 53.25051 -3.14576 12724 ft 307 kts
2026-05-07 20:52 53.27180 -3.14406 12438 ft 305 kts
2026-05-07 20:53 53.29297 -3.14238 12154 ft 304 kts
2026-05-07 20:53 53.31399 -3.14070 11875 ft 302 kts
2026-05-07 20:53 53.33491 -3.13903 11599 ft 300 kts
2026-05-07 20:53 53.35570 -3.13736 11328 ft 298 kts
2026-05-07 20:54 53.37633 -3.13437 11039 ft 299 kts 12°
2026-05-07 20:54 53.39465 -3.11864 10764 ft 298 kts 41°
2026-05-07 20:54 53.40766 -3.09196 10515 ft 295 kts 59°
2026-05-07 20:54 53.41807 -3.06243 10238 ft 294 kts 63°
2026-05-07 20:55 53.42815 -3.03265 9971 ft 294 kts 63°
2026-05-07 20:55 53.43794 -3.00266 9678 ft 293 kts 64°
2026-05-07 20:55 53.44731 -2.97235 9388 ft 292 kts 68°
2026-05-07 20:55 53.45552 -2.94138 9103 ft 290 kts 69°
2026-05-07 20:56 53.46345 -2.91030 8833 ft 289 kts 69°
2026-05-07 20:56 53.47127 -2.87932 8572 ft 288 kts 69°
2026-05-07 20:56 53.47901 -2.84840 8309 ft 287 kts 69°
2026-05-07 20:56 53.48668 -2.81754 8050 ft 285 kts 70°
2026-05-07 20:57 53.49426 -2.78687 7796 ft 284 kts 70°
2026-05-07 20:57 53.50178 -2.75621 7560 ft 283 kts 70°
2026-05-07 20:57 53.50670 -2.73601 7402 ft 281 kts 70°
2026-05-07 20:57 53.51406 -2.70571 7204 ft 279 kts 70°
2026-05-07 20:58 53.52131 -2.67570 6957 ft 277 kts 70°
2026-05-07 20:58 53.52857 -2.64540 6624 ft 281 kts 70°
2026-05-07 20:58 53.53581 -2.61498 6469 ft 281 kts 70°
2026-05-07 20:58 53.54304 -2.58434 6273 ft 282 kts 70°
2026-05-07 20:59 53.55025 -2.55372 6096 ft 281 kts 70°
2026-05-07 20:59 53.55739 -2.52335 5910 ft 278 kts 70°
2026-05-07 20:59 53.56449 -2.49322 5720 ft 276 kts 70°
2026-05-07 20:59 53.57154 -2.46336 5536 ft 274 kts 70°
2026-05-07 21:00 53.57827 -2.43358 5352 ft 271 kts 77°
2026-05-07 21:00 53.58169 -2.40269 5180 ft 267 kts 86°
2026-05-07 21:00 53.58313 -2.37157 5004 ft 265 kts 89°
2026-05-07 21:00 53.58411 -2.34058 4820 ft 265 kts 90°
2026-05-07 21:01 53.58502 -2.30964 4655 ft 264 kts 90°
2026-05-07 21:01 53.58335 -2.27936 4512 ft 258 kts 109°
2026-05-07 21:01 53.57818 -2.25105 4403 ft 256 kts 110°
2026-05-07 21:01 53.57294 -2.22228 4274 ft 258 kts 110°
2026-05-07 21:02 53.56763 -2.19307 4155 ft 263 kts 110°
2026-05-07 21:02 53.56224 -2.16345 4032 ft 266 kts 110°
2026-05-07 21:02 53.55678 -2.13352 3906 ft 268 kts 110°
2026-05-07 21:02 53.55078 -2.10407 3754 ft 261 kts 120°
2026-05-07 21:03 53.54113 -2.07908 3649 ft 250 kts 129°
2026-05-07 21:03 53.53104 -2.05603 3554 ft 237 kts 130°
2026-05-07 21:03 53.52079 -2.03585 3492 ft 218 kts 139°
2026-05-07 21:03 53.51000 -2.01953 3474 ft 198 kts 148°
2026-05-07 21:04 53.49830 -2.01012 3465 ft 176 kts 169°
2026-05-07 21:04 53.48696 -2.01369 3497 ft 173 kts 214°
2026-05-07 21:04 53.47817 -2.02769 3490 ft 174 kts 221°
2026-05-07 21:04 53.46950 -2.04161 3488 ft 175 kts 221°
2026-05-07 21:05 53.46087 -2.05625 3370 ft 179 kts 224°
2026-05-07 21:05 53.45265 -2.07201 3134 ft 180 kts 227°
2026-05-07 21:05 53.44472 -2.08803 2896 ft 177 kts 228°
2026-05-07 21:05 53.43702 -2.10382 2689 ft 172 kts 228°
2026-05-07 21:06 53.42946 -2.11933 2447 ft 173 kts 228°
2026-05-07 21:06 53.42185 -2.13497 2216 ft 173 kts 227°
2026-05-07 21:06 53.41425 -2.15058 1966 ft 171 kts 227°
2026-05-07 21:06 53.40685 -2.16579 1746 ft 166 kts 227°
2026-05-07 21:07 53.39969 -2.18051 1513 ft 160 kts 227°
2026-05-07 21:07 53.39295 -2.19438 1338 ft 145 kts 227°
2026-05-07 21:07 53.38658 -2.20747 1104 ft 144 kts 228°
2026-05-07 21:07 53.38030 -2.22037 902 ft 142 kts 228°
2026-05-07 21:08 53.37398 -2.23337 708 ft 145 kts 227°
2026-05-07 21:08 53.36753 -2.24664 516 ft 148 kts 229°
2026-05-07 21:08 53.36095 -2.26008 296 ft 150 kts 229°
2026-05-07 21:08 53.35504 -2.27229 248 ft 109 kts 231°
2026-05-07 21:09 53.35160 -2.27939 234 ft 50 kts 231°
2026-05-07 21:09 53.35010 -2.28276 231 ft 28 kts 243°
2026-05-07 21:09 53.34950 -2.28570 225 ft 22 kts 258°
2026-05-07 21:09 53.34945 -2.28701 220 ft 11 kts 289°
2026-05-07 21:10 53.35007 -2.28744 220 ft 11 kts 27°
2026-05-07 21:10 53.35059 -2.28657 223 ft 10 kts 47°
2026-05-07 21:10 53.35104 -2.28564 226 ft 10 kts 51°
2026-05-07 21:10 53.35149 -2.28471 229 ft 11 kts 50°
2026-05-07 21:11 53.35196 -2.28375 231 ft 11 kts 51°
2026-05-07 21:11 53.35249 -2.28265 238 ft 15 kts 49°
2026-05-07 21:11 53.35432 -2.27959 243 ft 19 kts 45°
2026-05-07 21:12 53.35525 -2.27811 248 ft 18 kts 44°
2026-05-07 21:12 53.35615 -2.27666 253 ft 18 kts 44°
2026-05-07 21:12 53.35696 -2.27513 252 ft 19 kts 51°
2026-05-07 21:12 53.35772 -2.27356 254 ft 12 kts 51°
2026-05-07 21:13 53.35820 -2.27243 254 ft 12 kts 74°
2026-05-07 21:13 53.35797 -2.27116 254 ft 12 kts 90°
2026-05-07 21:13 53.35831 -2.26996 255 ft 11 kts 59°
2026-05-07 21:13 53.35875 -2.26890 255 ft 11 kts 51°
2026-05-07 21:14 53.35930 -2.26832 255 ft 9 kts 348°
2026-05-07 21:14 53.35986 -2.26825 254 ft 9 kts 37°
2026-05-07 21:14 53.36028 -2.26745 254 ft 10 kts 51°
2026-05-07 21:14 53.36068 -2.26654 254 ft 9 kts 56°
2026-05-07 21:15 53.36119 -2.26657 254 ft 6 kts 327°
2026-05-07 21:15 53.36141 -2.26682 254 ft 1 kts 326°
2026-05-07 21:15 53.36144 -2.26685 254 ft 0 kts 326°